Regional Weather Roundup
Issued by NWS

Home | Current Version | Previous Version | Text Only | Print | Product List | Glossary On
Versions: 1 2 3 4 5 6 7 8 9 10 11 12 13 14 15 16 17 18 19 20 21 22 23 24 25 26 27 28 29 30 31 32 33 34 35 36 37 38 39 40 41 42 43 44 45 46 47 48 49 50
000
ASUS43 KOAX 210810
RWRNE

WEATHER ROUNDUP FOR NEBRASKA
NATIONAL WEATHER SERVICE OMAHA NE
300 AM CDT SUN SEP 21 2014

NOTES: SATELLITE DATA IS BEING USED TO AUGMENT CLOUD COVER ABOVE
       12000 FEET.
       "FAIR" INDICATES FEW OR NO CLOUDS BELOW 12,000 FEET WITH NO
       SIGNIFICANT WEATHER AND/OR OBSTRUCTIONS TO VISIBILITY.

  * THESE STATIONS DO NOT REPORT WEATHER SUCH AS RAIN...SNOW OR FOG.

NEZ001>004-019>022-054>056-210900-
NEBRASKA PANHANDLE

CITY           SKY/WX    TMP DP  RH WIND       PRES   REMARKS
SCOTTSBLUFF    MOCLDY    51  43  74 NE7       30.33S
ALLIANCE       PTCLDY    40  37  89 SW9       30.33R WCI  34
CHADRON        CLEAR     45  39  79 CALM      30.32R
KIMBALL        CLOUDY    56  42  58 CALM      30.35R
SIDNEY         CLOUDY    59  42  53 NE5       30.34S
$$

NEZ057>060-069>072-079>082-210900-
SOUTHWEST NEBRASKA

CITY           SKY/WX    TMP DP  RH WIND       PRES   REMARKS
NORTH PLATTE   CLEAR     48  43  82 W5        30.25S
IMPERIAL       MOCLDY    54  46  74 NW7       30.28S
LEXINGTON      CLEAR     50  46  88 NW7       30.22S
MCCOOK         CLEAR     55  47  74 SW3       30.24S
OGALLALA       MOCLDY    51  48  91 W6        30.29R
$$

NEZ005>010-023>029-035>040-094-210900-
NORTH CENTRAL NEBRASKA

CITY           SKY/WX    TMP DP  RH WIND       PRES   REMARKS
VALENTINE      CLEAR     47  39  74 NW9       30.24R
AINSWORTH      CLEAR     48  40  75 NW8       30.23S
BROKEN BOW     CLEAR     51  41  68 N6        30.21S
O`NEILL        CLEAR     50  44  77 W7        30.19R
ORD            CLEAR     48  43  82 N3        30.17S
THEDFORD       CLEAR     48  42  80 W6        30.27R
$$

NEZ041-046>049-061>064-073>077-083>087-210900-
SOUTH CENTRAL NEBRASKA

CITY           SKY/WX    TMP DP  RH WIND       PRES   REMARKS
GRAND ISLAND   CLEAR     53  46  77 W5        30.17S
AURORA         CLEAR     52  48  86 NW6       30.15F
HASTINGS       CLEAR     55  46  71 W3        30.17S
HEBRON         CLEAR     55  51  86 CALM      30.15S
HOLDREGE       CLEAR     55  46  69 N8        30.20S
KEARNEY *      CLEAR     54  46  76 W6        30.19S
YORK           CLEAR     52  50  93 NW7       30.14F
$$

NEZ011>018-030>034-042>045-210900-
NORTHEAST NEBRASKA

CITY           SKY/WX    TMP DP  RH WIND       PRES   REMARKS
NORFOLK        CLEAR     55  47  74 W8        30.14R
ALBION         CLEAR     46  43  87 NW3       30.16S
BLAIR          CLEAR     58  51  77 W6        30.08S
COLUMBUS *     CLEAR     52  46  82 W3        30.13S
FREMONT        CLEAR     54  50  87 NW3       30.10S
TEKAMAH        CLEAR     55  51  86 W6        30.07S
WAYNE          CLEAR     52  47  83 W6        30.12S
$$

NEZ050>053-065>068-078-088>093-210900-
SOUTHEAST NEBRASKA

CITY           SKY/WX    TMP DP  RH WIND       PRES   REMARKS
LINCOLN        CLEAR     56  50  80 NW3       30.12R
OMAHA EPPLEY   CLEAR     59  55  87 CALM      30.08S
BEATRICE       PTCLDY    55  51  89 W5        30.12S
FALLS CITY     CLEAR     62  56  80 NW3       30.08R
NEBRASKA CITY    N/A     59  50  72 W5        30.10R
PLATTSMOUTH    CLEAR     57  51  80 W5        30.08F
$$

NEZ044-045-051>053-067-210900-
OMAHA AREA

CITY           SKY/WX    TMP DP  RH WIND       PRES   REMARKS
OMAHA EPPLEY   CLEAR     59  55  87 CALM      30.08S
BLAIR          CLEAR     58  51  77 W6        30.08S
FREMONT        CLEAR     54  50  87 NW3       30.10S
MILLARD        CLEAR     59  52  78 NW3       30.08S
OFFUTT AFB     CLEAR     55  55  99 W2        30.08R
PLATTSMOUTH    CLEAR     57  51  80 W5        30.08F
WAHOO          FAIR      56  50  80 NW5       30.10S
$$



USA.gov is the U.S. government's official web portal to all federal, state and local government web resources and services.